Flag for Canada Weather past 2 weeks in Ottawa, Ontario, Canada

Now
68 °F

Scattered showers. Broken clouds.


Feels Like: 68 °F
Forecast: 56 / 69 °F
Wind: 10 mph from Northwest

Location: Ottawa Int'L. Ont.

Current Time: Aug 27, 2015 at 3:48:45 PM

Latest Report: Aug 27, 2015 at 3:00 PM


Visibility: 15 mi

Pressure: 30.06 "Hg

Humidity: 69%

Dew point: 57 °F

Location of OttawaLocation

Historic Weather in Ottawa — Graph

°F

Ottawa temperature yesterday

Maximum temperature yesterday: 70 °F (at 12:00 PM)
Minimum temperature yesterday: 55 °F (at 1:00 AM)
Average temperature yesterday: 62 °F

Past Weeks' High & Low Weather Summary

 TemperatureHumidityPressure
High88 °F (Aug 16, 4:00 PM)100% (Aug 14, 8:00 AM)30.19 "Hg (Aug 14, 8:00 AM)
Low55 °F (Aug 13, 6:00 AM)39% (Aug 13, 5:00 PM)29.77 "Hg (Aug 20, 6:00 PM)
Average70 °F81%29.97 "Hg
* Reported Aug 12 2:00 PM — Aug 27 2:00 PM, Ottawa, Weather by CustomWeather, © 2015

Note: Actual official high and low records may vary slightly from our data, if they occured in-between our weather recording intervals... More about our weather records

Advertising

Ottawa weather history for previous 24 hours

 ConditionsComfort  
Time TempWeatherWind HumidityBarometerVisibility
2:00 PM
Thu, Aug 27
68 °FScattered showers. Broken clouds.10 mph69%30.07 "Hg15 mi
1:00 PM68 °FPartly sunny.9 mph69%30.06 "Hg15 mi
12:00 PM66 °FScattered showers. Partly sunny.7 mph73%30.07 "Hg15 mi
11:00 AM63 °FMostly cloudy.8 mph83%30.07 "Hg15 mi
10:45 AM63 °FPartly sunny.7 mph83%30.07 "Hg15 mi
10:00 AM61 °FMostly cloudy.10 mph83%30.06 "Hg15 mi
9:00 AM59 °FMostly cloudy.12 mph88%30.05 "Hg15 mi
8:00 AM57 °FBroken clouds.10 mph88%30.04 "Hg15 mi
7:00 AM55 °FPassing clouds.12 mph94%30.02 "Hg15 mi
6:49 AM55 °FPartly cloudy.9 mph94%30.02 "Hg15 mi
6:00 AM57 °FOvercast.9 mph88%30.01 "Hg15 mi
5:00 AM57 °FMostly cloudy.8 mph94%29.99 "Hg10 mi
4:00 AM57 °FOvercast.7 mph94%29.98 "Hg10 mi
3:00 AM57 °FOvercast.7 mph94%29.98 "Hg15 mi
2:00 AM59 °FOvercast.7 mph94%29.98 "Hg15 mi
1:00 AM59 °FOvercast.6 mph94%29.99 "Hg15 mi
12:00 AM61 °FPassing clouds.10 mph88%29.97 "Hg15 mi
11:00 PM
Wed, Aug 26
61 °FPassing clouds.8 mph88%29.97 "Hg15 mi
10:00 PM61 °FOvercast.5 mph88%29.96 "Hg15 mi
9:00 PM63 °FPassing clouds.6 mph83%29.96 "Hg15 mi
8:00 PM63 °FPartly sunny.3 mph83%29.94 "Hg15 mi
7:00 PM64 °FPartly sunny.3 mph88%29.94 "Hg15 mi
6:00 PM66 °FScattered showers. Broken clouds.5 mph83%29.94 "Hg15 mi
5:48 PM64 °FBroken clouds.5 mph88%29.94 "Hg15 mi
5:00 PM66 °FSprinkles. Partly sunny.21 mph78%29.95 "Hg10 mi
4:00 PM70 °FScattered showers. Broken clouds.7 mph60%29.93 "Hg15 mi
3:00 PM70 °FScattered showers. Broken clouds.9 mph57%29.94 "Hg15 mi
Weather by CustomWeather, © 2015

See weather overviewHow to use our weather pages